EDT,Max TemperatureF,Mean TemperatureF,Min TemperatureF,Max Dew PointF,MeanDew PointF,Min DewpointF,Max Humidity, Mean Humidity, Min Humidity, Max Sea Level PressureIn, Mean Sea Level PressureIn, Min Sea Level PressureIn, Max VisibilityMiles, Mean VisibilityMiles, Min VisibilityMiles, Max Wind SpeedMPH, Mean Wind SpeedMPH, Max Gust SpeedMPH,PrecipitationIn, CloudCover, Events, WindDirDegrees
2011-10-1,50,46,42,43,37,34,81,73,66,30.06,29.96,29.90,10,9,4,15,9,23,0.05,7,Rain,332
2011-10-2,55,48,42,41,34,30,87,62,38,30.11,30.07,30.04,10,10,5,14,7,21,0.02,5,Rain,323
2011-10-3,62,50,37,45,39,36,100,67,42,30.22,30.13,30.07,10,10,10,12,3,18,0.00,4,,296
2011-10-4,71,58,46,48,46,45,93,68,40,30.31,30.26,30.21,10,10,10,10,2,16,0.00,4,,311
2011-10-5,78,62,46,52,45,37,100,64,24,30.34,30.30,30.25,10,10,7,7,1,,0.00,0,,71
2011-10-6,78,64,50,52,47,45,87,59,30,30.36,30.32,30.30,10,10,2,12,5,,0.00,0,,97
2011-10-7,80,66,53,54,51,46,94,66,30,30.43,30.39,30.36,10,10,3,9,4,,0.00,0,,94
2011-10-8,78,64,51,48,44,37,82,56,24,30.50,30.45,30.39,10,10,10,12,8,,0.00,0,,94
2011-10-9,77,65,53,48,45,41,77,54,28,30.44,30.39,30.32,10,10,7,18,7,25,0.00,0,,107
2011-10-10,73,64,55,50,46,39,77,52,31,30.34,30.25,30.15,10,10,10,13,9,17,0.00,2,,100
2011-10-11,69,64,59,54,51,48,82,63,46,30.14,30.08,30.02,10,10,10,22,8,26,0.05,7,Rain,107
2011-10-12,69,62,55,57,55,54,100,83,60,29.99,29.89,29.83,10,10,5,10,3,,0.18,8,Rain,351
2011-10-13,64,58,53,63,58,54,100,95,83,29.80,29.68,29.59,10,5,0,9,3,,0.66,7,Fog-Rain-Thunderstorm,236
2011-10-14,68,62,55,59,48,34,100,69,30,29.81,29.72,29.63,10,9,4,21,8,33,0.30,6,Rain,292
2011-10-15,64,55,46,41,36,30,76,53,28,30.02,29.96,29.88,10,10,10,20,6,26,0.00,0,,278
2011-10-16,73,57,41,41,36,34,81,51,25,30.18,30.10,29.99,10,10,7,20,5,29,0.00,0,,272
2011-10-17,77,65,53,55,48,43,77,56,41,30.01,29.96,29.89,10,10,10,15,4,21,0.00,2,,278
2011-10-18,80,66,53,55,51,43,94,68,29,29.89,29.83,29.68,10,9,7,13,2,18,0.00,0,,207
2011-10-19,62,53,44,61,51,43,94,80,63,29.62,29.47,29.32,10,8,2,21,9,30,0.44,7,Rain,120
2011-10-20,44,42,41,41,39,37,93,86,81,29.90,29.68,29.51,10,7,2,21,14,30,0.12,8,Rain,272
2011-10-21,55,48,41,41,36,34,87,65,44,30.12,30.07,29.99,10,10,10,10,6,9,0.00,5,,284
2011-10-22,60,48,35,39,36,34,93,69,36,30.18,30.13,30.10,10,10,7,7,1,,0.00,0,,257
2011-10-23,64,50,37,39,35,32,87,62,30,30.16,30.11,30.07,10,10,7,8,1,,0.00,0,,177
2011-10-24,68,54,41,45,40,37,87,59,35,30.19,30.13,30.08,10,10,10,14,3,22,0.00,3,,272
2011-10-25,73,58,42,50,41,32,100,65,23,30.30,30.24,30.14,10,9,1,6,1,,0.00,0,,288
2011-10-26,71,56,42,46,43,39,87,65,38,30.14,30.07,29.96,10,10,7,15,3,18,0.00,1,,260
2011-10-27,64,58,51,54,48,45,94,72,59,29.96,29.89,29.83,10,10,5,22,5,28,0.06,5,Rain,286
2011-10-28,46,44,42,45,42,39,93,89,81,30.06,30.03,29.97,10,9,4,16,7,23,0.37,8,Rain,80
2011-10-29,50,44,37,37,33,28,93,74,43,30.11,30.03,29.95,10,9,3,17,6,22,0.06,7,Rain,355
2011-10-30,55,44,32,34,30,23,93,69,29,30.30,30.21,30.13,10,10,5,7,1,,0.00,0,,232
2011-10-31,51,44,37,36,32,30,81,65,44,30.24,30.21,30.17,10,10,7,13,1,24,0.00,3,Rain,297